Vertical_Velocity
-3 -2 -3 -3 -5 -1 -2 1 2 2 1 -1 -2 -2 0 -2 -4 -5 -1 -0 -5 -6
-4 -4 -1 -3 -8 -4 -0 -4 -1 -5 -4 -2 -2 0 -2 -0 -0 -4 0 -0 -0 -3
-3 -2 -5 -4 -1 -4 -5 -6 -6 -5 -5 -4 -4 -6 -10 -5 2 -3 3 -1 0 -1
-1 -1 -1 -2 -2 -4 -1 -4 -3 -4 -4 -5 -1 -4 -3 0 -3 -1 -1 -1 -1 3
1 -0 -2 -2 -4 -5 -4 -4 -5 -6 -4 -4 -5 -5 -4 -4 0 -2 0 -1 -3 -3
-2 -2 -2 -3 -4 -5 -5 -5 -5 -8 -7 -0 -3 -4 -2 -5 1 -1 -0 3 -2 -1
-0 -3 -3 -4 -5 -3 -4 -6 -6 -3 -2 -5 -3 -1 -1 -3 -0 0 3 -2 -5 -3
-2 -5 -5 -5 -4 -5 -5 -6 -2 -4 -3 2 -4 -3 3 -3 -1 4 2 5 6 9
-3 -5 -4 -5 -3 -4 -3 -0 -5 -8 -6 5 -6 -7 -2 -7 0 1 -2 -1 -0 -3
-2 -4 -3 -4 -4 -4 2 -2 -5 -5 -4 7 -2 -5 -3 -1 1 -1 -1 -1 -1 3
-0 -3 -4 -6 -1 -0 -0 -7 -7 -4 -3 -0 -2 -4 0 -2 0 -0 1 0 0 -2
-2 -2 -4 -2 1 -2 1 -4 2 -2 -2 -7 2 -3 -3 -5 -1 0 3 -0 -1 -5
-2 -4 1 -4 0 2 -3 -5 -2 6 -5 -9 11 -2 -4 -7 -3 -5 -2 0 -2 0
-4 1 -5 -3 -5 -2 6 -3 -4 -3 -2 -3 -3 4 -2 -4 -3 -9 -1 -0 1 2
Height
5679 5672 5665 5658 5651 5642 5634 5625 5615 5605 5594 5583 5571 5560 5549 5540 5529 5517 5506 5496 5486 5478
5663 5655 5647 5639 5631 5622 5613 5604 5594 5583 5571 5560 5548 5536 5525 5514 5502 5488 5475 5463 5452 5443
5644 5637 5629 5620 5612 5603 5593 5582 5572 5560 5548 5536 5524 5511 5499 5488 5474 5460 5446 5436 5429 5425
5627 5619 5611 5602 5592 5582 5571 5560 5549 5538 5527 5513 5499 5487 5475 5460 5445 5433 5426 5422 5420 5416
5609 5601 5592 5582 5571 5561 5550 5538 5527 5516 5504 5491 5478 5465 5450 5436 5424 5418 5416 5413 5409 5405
5591 5583 5573 5562 5552 5541 5530 5518 5506 5495 5482 5469 5455 5441 5427 5417 5413 5410 5408 5403 5398 5393
5574 5564 5555 5544 5533 5521 5510 5499 5486 5474 5462 5448 5433 5420 5411 5408 5405 5402 5398 5393 5388 5382
5555 5546 5536 5525 5515 5504 5492 5480 5468 5457 5442 5427 5416 5407 5403 5400 5396 5393 5389 5384 5379 5373
5538 5527 5518 5508 5497 5487 5475 5463 5450 5436 5424 5413 5403 5399 5396 5391 5387 5383 5378 5373 5368 5362
5520 5510 5501 5492 5481 5470 5459 5445 5432 5418 5407 5400 5394 5391 5387 5383 5378 5373 5368 5362 5356 5350
5504 5495 5485 5476 5465 5454 5441 5427 5416 5405 5396 5392 5388 5383 5379 5373 5368 5362 5356 5350 5344 5337
5488 5479 5471 5461 5449 5437 5426 5412 5402 5391 5387 5384 5380 5375 5370 5364 5357 5351 5345 5339 5331 5324
5473 5466 5456 5445 5435 5423 5411 5400 5390 5384 5379 5375 5372 5367 5361 5354 5347 5340 5334 5327 5320 5312
5459 5451 5441 5430 5418 5410 5398 5388 5381 5377 5373 5368 5363 5359 5352 5345 5338 5330 5323 5316 5308 5300